Regional Weather Roundup
Issued by NWS Sioux Falls, SD

Home | Current Version | Previous Version | Text Only | Print | Product List | Glossary Off
Versions: 1 2 3 4 5 6 7 8 9 10 11 12 13 14 15 16 17 18 19 20 21 22 23 24 25 26 27 28 29 30 31 32 33 34 35 36 37 38 39 40 41 42 43 44 45 46 47 48 49 50

000
ASUS43 KFSD 272102
RWRFSD

WEATHER ROUNDUP FOR SE SOUTH DAKOTA/SW MINNESOTA/NW IOWA
NATIONAL WEATHER SERVICE SIOUX FALLS SD
300 PM CST FRI FEB 27 2015

NOTE: "FAIR" INDICATES FEW OR NO CLOUDS BELOW 12,000 FEET WITH NO
SIGNIFICANT WEATHER AND OR OBSTRUCTIONS TO VISIBILITY.


SDZ038>040-050-052>070-272200-
SOUTHEAST SOUTH DAKOTA

CITY           SKY/WX    TMP DP  RH WIND       PRES   REMARKS
CHAMBERLAIN    NOT AVBL
HURON          SUNNY     17   3  54 SE12      30.41F WCI   4
MADISON        FAIR      14   3  62 S10       30.41F WCI   1
MITCHELL       SUNNY     23  -2  33 SE10      30.42F WCI  12
SIOUX FALLS    SUNNY     13  -1  54 SW8       30.45F WCI   2
WINNER         FAIR      26  -5  25 S17       30.28F WCI  13
YANKTON        SUNNY     19   1  45 SE10      30.46F WCI   8
$$

MNZ071-072-080-081-089-090-097-098-272200-
SOUTHWEST MINNESOTA

CITY           SKY/WX    TMP DP  RH WIND       PRES   REMARKS
FAIRMONT       SUNNY     12   1  62 SW7       30.50F WCI   2
JACKSON        SUNNY     12   1  62 W9        30.48F WCI   0
LUVERNE        SUNNY     14   3  62 S8        30.48S WCI   3
MARSHALL       SUNNY     12   1  62 SW8       30.48F WCI   1
MONTEVIDEO     SUNNY     21   5  49 SW6       30.49S WCI  14
PIPESTONE      SUNNY     10   1  67 W5        30.43S WCI   2
REDWOOD FALLS  SUNNY     14   2  58 W7        30.49F WCI   4
TRACY          SUNNY     16   2  55 SW5       30.47S WCI   8
WINDOM         SUNNY     12   1  62 W6        30.47F WCI   3
WORTHINGTON    SUNNY     25  -4  28 SW6       30.48F WCI  18
$$

IAZ001>003-012>014-020>022-031-032-NEZ013-014-SDZ071-272200-
NORTHWEST IOWA

CITY           SKY/WX    TMP DP  RH WIND       PRES   REMARKS
DENISON        SUNNY     10  -4  52 S5        30.51F WCI   2
ESTHERVILLE    SUNNY     10   0  63 SW8       30.50F WCI  -2
SIOUX CITY     NOT AVBL
SPENCER          N/A     12   3  67 SW7       30.51F WCI   1
$$

ABBREVIATIONS USED IN REMARKS
   TC - TEMPERATURE IN CELSIUS
  WCI - WIND CHILL INDEX
   HX - HEAT INDEX
  VSB - VISIBILITY




USA.gov is the U.S. government's official web portal to all federal, state and local government web resources and services.